Home   Weather   Kassel   Past weeks

Flag for Germany Past Weather in Kassel, Hesse, Germany — Yesterday and Last 2 Weeks

Now
19 °F

Ice fog.


Feels Like: 11 °F
Forecast: 23 / 32 °F
Wind: 6 mph from Northwest

Location: Kassel / Calden

Current Time: Jan 23, 2017 at 12:00:53 pm

Latest Report: Jan 23, 2017 at 11:20 am


Visibility: 0 mi

Pressure: 30.30 "Hg

Humidity: 100%

Dew Point: 19 °F

Location of KasselLocation

Past Weather in Kassel — Graph

°F

Kassel Temperature Yesterday

Maximum temperature yesterday: 28 °F (at 3:20 pm)
Minimum temperature yesterday: 16 °F (at 7:20 am)
Average temperature yesterday: 22 °F

High & Low Weather Summary for the Past Weeks

 TemperatureHumidityPressure
High41 °F (Jan 11, 5:50 pm)100% (Jan 8, 10:20 am)30.69 "Hg (Jan 8, 10:20 am)
Low12 °F (Jan 23, 7:20 am)50% (Jan 15, 8:06 pm)28.91 "Hg (Jan 13, 3:20 am)
Average28 °F89%30.15 "Hg
* Reported Jan 8 10:20 am — Jan 23 10:50 am, Kassel, Weather by CustomWeather, © 2017

Note: Actual official high and low records may vary slightly from our data, if they occured in-between our weather recording intervals... More about our weather records

Advertising

Kassel Weather History for the Previous 24 Hours

Scroll right to see more
 ConditionsComfort  
Time TempWeatherWind HumidityBarometerVisibility
10:50 am
Mon, Jan 23
19 °FIce fog.9 mph100%30.27 "Hg1 mi
10:20 am18 °FIce fog.5 mph100%30.27 "Hg0 mi
9:50 am18 °FIce fog.3 mph100%30.27 "Hg0 mi
9:20 am18 °FIce fog.2 mph100%30.27 "Hg0 mi
8:50 am16 °FIce fog.2 mph100%30.27 "Hg1 mi
8:20 am14 °FIce fog.1 mph100%30.27 "Hg2 mi
7:50 am14 °FIce fog.2 mph92%30.27 "Hg2 mi
7:20 am12 °FIce fog.2 mph100%30.24 "Hg1 mi
7:50 pm
Sun, Jan 22
18 °FClear.2 mph100%30.24 "Hg4 mi
7:20 pm19 °FClear.2 mph93%30.27 "Hg4 mi
6:50 pm19 °FClear.1 mph100%30.24 "Hg4 mi
6:20 pm21 °FClear.2 mph93%30.24 "Hg5 mi
5:50 pm21 °FClear.1 mph100%30.24 "Hg5 mi
5:20 pm23 °FClear.2 mph93%30.24 "Hg5 mi
4:50 pm25 °FClear.1 mph93%30.24 "Hg5 mi
4:20 pm27 °FClear.2 mph93%30.24 "Hg5 mi
3:50 pm27 °FClear.No wind86%30.24 "Hg4 mi
3:20 pm28 °FClear.2 mph80%30.24 "Hg4 mi
2:50 pm27 °FClear.2 mph86%30.24 "Hg4 mi
2:20 pm27 °FClear.3 mph86%30.27 "Hg4 mi
1:50 pm27 °FIce fog.3 mph86%30.27 "Hg4 mi
1:20 pm25 °FPassing clouds.3 mph100%30.27 "Hg4 mi
12:50 pm23 °FIce fog.2 mph100%30.30 "Hg3 mi
12:20 pm23 °FSleet. Ice fog.2 mph100%30.30 "Hg3 mi
Weather by CustomWeather, © 2017

See weather overviewHow to use our weather pages